Retour au catalogue

CZ-6A DEB

ActifPO
NORAD 54263·DEBRIS·🇨🇳 China

Lancé Nov 11, 2022 depuis Taiyuan Satellite Launch Center

Loading…

Prochains Passages (prochaines 24 heures)

TLE

FraisSource: Space-Track

Époque: Sep 14, 2026, 06:11 UTC

1 54263U 22151E   26257.25823357 -.00000027  00000-0  11724-4 0  9997
2 54263  99.1410 176.8130 0305136  70.3614 293.0186 13.56769067190000

Suivez CZ-6A DEB en temps réel avec AllMySat

Download on the App Store